CAPE
7 13 8 5 0 0 0 2 0 0 0 2 5 0 2 4 0 0 19 0 3 3 13 1 1 0 2 5 0 0 6 12 4 0 0 9 0 0 0 0 0 0 0 0
13 16 12 11 0 3 4 0 0 0 16 0 1 0 2 1 1 2 4 4 13 1 0 0 0 22 47 0 0 2 4 8 1 2 0 1 0 0 0 0 0 4 0 9
17 10 11 8 5 0 4 2 0 3 0 0 2 0 0 1 0 2 18 17 1 0 0 2 0 1 21 0 0 0 0 5 0 0 0 0 0 0 0 0 5 13 9 25
14 8 10 3 4 1 0 2 17 7 0 0 1 1 0 1 3 6 0 0 0 8 0 0 7 13 7 15 6 0 4 12 2 0 0 0 3 3 0 0 0 1 4 13
19 11 7 13 13 9 0 6 4 7 4 7 2 0 3 1 0 1 3 1 7 0 0 11 1 1 11 4 18 0 4 20 16 7 4 0 3 10 48 21 27 63 38 0
22 11 10 36 27 25 10 9 3 8 6 1 1 0 0 0 2 3 12 0 5 0 3 3 0 0 0 4 6 5 1 4 0 0 1 0 0 0 26 12 51 19 1 1
10 5 7 30 34 30 12 1 17 9 1 2 1 0 2 0 2 4 7 2 2 6 4 0 2 7 9 0 11 3 0 0 1 0 0 0 0 0 4 3 0 0 0 2
21 16 17 22 24 23 3 0 16 13 6 3 0 0 2 2 0 3 13 3 6 12 5 2 1 1 2 8 13 5 0 1 0 0 0 0 0 0 0 0 0 0 0 0
14 7 19 24 13 16 3 0 8 14 0 0 0 1 2 0 3 1 5 1 11 14 2 1 0 0 0 0 4 32 0 0 1 0 0 0 0 0 0 0 0 0 0 0
17 8 8 30 20 19 20 0 0 16 5 0 1 2 0 7 2 2 4 4 5 8 1 0 4 0 3 0 1 0 3 1 0 0 0 0 0 0 0 0 0 0 0 0
26 15 14 25 28 23 20 4 5 7 8 1 1 1 3 1 3 1 1 0 0 1 0 1 1 0 1 2 1 1 0 0 0 0 0 0 0 1 0 0 0 0 0 0
22 17 23 18 25 21 28 1 0 0 18 0 0 0 0 0 0 3 6 6 5 3 0 0 0 1 0 0 0 0 0 0 0 0 1 0 0 0 0 0 0 0 0 0
23 18 10 14 13 18 27 1 0 5 12 0 0 0 0 0 0 1 4 0 10 6 1 6 2 1 0 0 0 2 16 17 1 0 0 0 0 0 0 0 0 0 0 0
12 14 2 8 5 1 25 0 0 8 2 0 0 0 0 0 0 6 15 23 6 0 0 5 0 0 0 0 0 1 0 10 0 1 0 0 0 0 0 0 0 0 0 0
17 15 8 2 1 2 0 0 2 3 8 4 0 0 0 0 0 0 0 0 0 0 0 0 0 0 0 0 0 2 1 0 0 0 0 0 0 0 0 0 0 0 0 0
10 7 9 2 2 5 1 2 0 0 2 2 1 0 0 0 0 0 0 0 0 0 0 0 0 0 0 0 0 0 12 0 0 0 0 0 0 0 0 0 0 0 0 0
2 3 3 0 0 1 0 0 0 1 0 1 1 0 0 0 0 0 0 0 0 0 0 0 0 0 0 0 2 23 5 0 0 0 0 0 0 0 0 0 0 0 0 0
0 1 0 0 0 0 0 2 5 18 0 2 1 0 0 0 0 0 0 0 0 0 0 0 0 0 0 1 6 23 0 0 0 0 0 0 0 0 0 0 0 0 0 0
0 0 0 0 0 0 0 0 17 1 0 0 1 2 0 0 0 0 0 0 0 0 0 0 0 0 0 6 22 27 14 0 0 0 0 0 0 0 0 0 0 0 0 0
0 0 0 0 2 1 0 1 0 0 0 0 0 3 0 0 0 0 0 0 0 0 0 0 0 0 0 7 1 9 6 0 0 0 0 0 0 0 0 0 0 0 0 0
0 0 0 0 0 0 0 0 0 0 3 2 1 0 0 0 0 0 0 0 0 0 0 0 0 0 2 18 14 23 0 0 0 0 0 0 0 0 0 0 0 0 0 0
0 2 0 0 0 0 0 1 8 3 4 4 0 1 0 0 0 0 0 0 0 0 0 0 0 5 8 20 24 5 0 0 0 0 0 0 0 0 0 0 0 0 0 0
1 0 0 3 0 0 0 0 0 5 14 0 0 0 0 0 0 0 0 0 0 0 0 3 3 1 29 27 22 15 0 3 0 0 0 0 0 0 0 0 0 0 0 0
0 0 0 0 2 0 0 0 0 14 5 0 3 8 4 0 0 0 0 0 0 0 0 0 0 0 19 7 19 9 0 9 0 0 0 0 0 0 0 0 0 0 0 0
0 0 0 1 0 0 0 0 5 9 0 2 10 1 0 0 0 0 0 0 0 0 0 0 0 0 0 3 3 2 0 0 0 0 0 0 0 0 0 0 0 0 0 0
0 0 0 0 0 0 0 2 20 6 4 1 12 0 0 0 0 0 0 0 0 0 2 2 0 5 0 0 0 0 0 0 0 0 0 0 0 0 0 0 0 0 0 0
0 0 0 0 1 0 0 0 5 7 9 6 2 7 2 1 0 0 0 0 0 0 0 0 0 0 0 0 0 0 0 0 0 0 0 0 0 0 0 0 0 0 0 0
CIN
-0 -0 -0 -0 -0 -0 -0 -0 -0 -0 -0 -14 -0 -0 -0 -0 -0 -0 -1 -0 -0 -0 -0 -14 -5 -0 -2 -44 -0 -0 -0 -2 -6 -0 -0 -50 -2 -0 -0 -0 -0 -0 -0 -0
-0 -0 -0 -0 -0 -0 -1 -0 -0 -0 -9 -0 -0 -0 -0 -0 -0 -0 -0 -0 -0 -7 -0 -0 -1 -22 -40 -0 -0 -3 -0 -1 -5 -1 -0 -14 -0 -0 -0 -0 -9 -20 -0 -44
-0 -0 -0 -0 -1 -0 -0 -0 -0 -2 -0 -0 -0 -0 -0 -0 -0 -4 -2 -0 -0 -0 -0 -0 -0 -12 -31 -0 -0 -10 -0 -0 -0 -0 -0 -0 -0 -0 -0 -0 -24 -43 -28 -72
-0 -0 -0 -1 -2 -3 -0 -2 -0 -1 -0 -0 -0 -0 -0 -0 -0 -0 -0 -0 -0 -0 -0 -0 -3 -14 -18 -20 -8 -0 -0 -0 -2 -0 -0 -0 -26 -44 -0 -0 -0 -13 -53 -44
-0 -0 -1 -6 -3 -3 -0 -0 -0 -0 -1 -0 -0 -0 -5 -0 -0 -0 -0 -0 -0 -0 -0 -1 -0 -20 -24 -9 -9 -0 -1 -1 -4 -52 -37 -0 -13 -59 -47 -53 -87 -76 -91 -22
-0 -0 -0 -0 -2 -1 -1 -4 -1 -1 -0 -0 -0 -0 -0 -0 -0 -0 -0 -0 -0 -0 -0 -1 -0 -0 -0 -8 -0 -0 -0 -4 -0 -0 -33 -0 -0 -8 -92 -108 -114 -85 -20 -53
-0 -0 -0 -0 -0 -1 -3 -2 -0 -2 -1 -0 -0 -0 -0 -0 -0 -0 -1 -0 -0 -0 -1 -0 -3 -0 -2 -0 -1 -1 -0 -0 -0 -0 -2 -0 -0 -5 -85 -15 -4 -0 -0 -55
-0 -0 -0 -0 -1 -4 -4 -0 -0 -0 -1 -0 -0 -0 -0 -0 -0 -0 -0 -0 -0 -0 -0 -2 -0 -0 -0 -2 -2 -2 -4 -0 -0 -0 -0 -0 -8 -0 -0 -0 -0 -0 -0 -0
-0 -0 -0 -0 -3 -1 -3 -2 -5 -1 -0 -0 -0 -1 -0 -2 -0 -0 -0 -0 -2 -0 -0 -0 -0 -0 -0 -0 -1 -3 -0 -0 -0 -0 -0 -0 -0 -2 -0 -0 -0 -0 -0 -0
-0 -0 -7 -0 -0 -0 -0 -0 -2 -1 -0 -1 -0 -0 -3 -0 -0 -0 -0 -0 -0 -0 -0 -0 -0 -0 -0 -1 -2 -0 -0 -4 -0 -0 -0 -0 -0 -0 -0 -0 -0 -0 -0 -0
-0 -0 -4 -0 -0 -0 -0 -1 -6 -2 -0 -0 -0 -0 -0 -0 -0 -0 -0 -0 -0 -0 -0 -0 -0 -0 -0 -0 -0 -3 -0 -0 -0 -0 -0 -0 -0 -18 -0 -0 -0 -0 -0 -0
-0 -0 -0 -0 -0 -0 -0 -0 -0 -0 -0 -0 -0 -0 -0 -0 -0 -0 -0 -0 -0 -0 -0 -0 -0 -0 -1 -0 -0 -0 -0 -0 -0 -0 -0 -0 -0 -0 -0 -0 -0 -0 -0 -0
-0 -0 -0 -0 -0 -0 -0 -0 -2 -9 -0 -0 -0 -0 -0 -0 -0 -7 -0 -0 -5 -0 -0 -0 -0 -0 -0 -0 -0 -0 -1 -12 -0 -0 -0 -0 -0 -0 -0 -0 -0 -0 -0 -0
-0 -0 -0 -0 -0 -0 -0 -0 -9 -0 -0 -0 -0 -0 -0 -0 -0 -23 -12 -15 -38 -0 -0 -5 -0 -0 -0 -0 -13 -22 -6 -33 -0 -0 -0 -0 -0 -0 -0 -0 -0 -0 -0 -0
-0 -0 -0 -0 -0 -0 -0 -2 -8 -2 -0 -0 -0 -0 -0 -0 -0 -0 -0 -0 -0 -0 -0 -0 -0 -0 -0 -0 -0 -55 -19 -0 -0 -0 -0 -0 -0 -0 -0 -0 -0 -0 -0 -0
-0 -0 -0 -0 -0 -0 -2 -8 -7 -0 -6 -8 -0 -0 -0 -0 -0 -0 -0 -0 -0 -0 -0 -0 -0 -0 -0 -0 -0 -29 -30 -0 -0 -0 -0 -0 -0 -0 -0 -0 -0 -0 -0 -0
-0 -0 -0 -0 -0 -0 -0 -0 -0 -6 -0 -0 -0 -0 -0 -0 -0 -0 -0 -0 -0 -0 -0 -0 -0 -0 -0 -0 -0 -11 -45 -0 -0 -0 -0 -0 -0 -0 -0 -0 -0 -0 -0 -0
-0 -5 -0 -0 -0 -0 -0 -24 -9 -0 -1 -0 -0 -0 -0 -0 -0 -0 -0 -0 -0 -0 -0 -0 -0 -0 -0 -3 -8 -19 -0 -0 -0 -0 -0 -0 -0 -0 -0 -0 -0 -0 -0 -0
-0 -0 -0 -5 -0 -2 -0 -3 -4 -6 -0 -0 -6 -0 -0 -0 -0 -0 -0 -0 -0 -0 -0 -0 -0 -0 -0 -6 -6 -14 -24 -17 -0 -0 -0 -0 -0 -0 -0 -0 -0 -0 -0 -0
-0 -0 -0 -1 -8 -6 -0 -14 -0 -0 -0 -8 -3 -13 -2 -0 -0 -0 -0 -0 -0 -0 -0 -0 -0 -4 -0 -13 -7 -24 -54 -0 -0 -0 -0 -0 -0 -0 -0 -0 -0 -0 -0 -0
-0 -0 -1 -0 -0 -0 -0 -0 -0 -18 -7 -12 -12 -0 -0 -0 -0 -0 -0 -0 -0 -0 -0 -0 -0 -0 -8 -19 -18 -39 -31 -0 -0 -0 -0 -0 -0 -0 -0 -0 -0 -0 -0 -0
-0 -0 -0 -0 -0 -0 -5 -13 -7 -10 -1 -9 -1 -6 -0 -0 -0 -0 -0 -0 -0 -0 -0 -0 -3 -5 -19 -12 -21 -45 -0 -0 -34 -0 -0 -0 -0 -0 -0 -0 -0 -0 -0 -0
-15 -12 -0 -0 -0 -0 -0 -0 -0 -3 -3 -0 -0 -0 -0 -0 -8 -0 -0 -0 -0 -0 -0 -4 -2 -3 -10 -26 -28 -39 -9 -33 -0 -0 -0 -0 -0 -0 -0 -0 -0 -0 -0 -0
-0 -0 -0 -0 -0 -0 -0 -0 -5 -8 -4 -0 -7 -4 -6 -0 -0 -0 -0 -0 -0 -0 -7 -0 -0 -0 -27 -34 -35 -30 -3 -8 -1 -0 -0 -0 -0 -0 -0 -0 -0 -0 -0 -0
-0 -0 -0 -1 -2 -3 -0 -0 -17 -10 -0 -7 -7 -9 -0 -0 -0 -0 -0 -0 -0 -0 -0 -0 -0 -0 -10 -40 -46 -25 -3 -0 -0 -0 -0 -0 -0 -0 -0 -0 -0 -0 -0 -0
-0 -0 -0 -0 -0 -0 -0 -9 -4 -11 -11 -11 -10 -0 -0 -0 -0 -0 -0 -0 -0 -0 -0 -0 -1 -7 -3 -9 -0 -0 -0 -0 -0 -0 -0 -0 -0 -0 -0 -0 -0 -0 -0 -0
-0 -4 -0 -0 -0 -0 -0 -0 -24 -20 -9 -1 -6 -2 -0 -7 -0 -0 -24 -7 -0 -0 -0 -0 -0 -0 -0 -0 -0 -0 -0 -0 -0 -0 -0 -0 -0 -0 -0 -0 -0 -0 -0 -0
Wind_Speed
44 46 47 48 49 51 42 37 38 24 31 22 25 25 29 26 32 28 28 9 13 26 30 27 32 38 30 22 23 31 28 27 28 34 27 32 34 30 30 29 28 24 24 21
45 46 46 46 45 45 41 39 28 22 24 27 29 29 30 29 28 27 13 19 15 25 28 24 27 28 29 22 24 25 27 36 36 23 29 31 34 44 35 24 23 27 26 23
45 45 44 43 43 41 36 30 31 25 20 32 29 30 27 27 29 28 29 26 23 27 26 26 28 24 21 20 23 26 22 32 35 44 31 26 24 40 16 20 23 20 23 17
43 42 41 41 41 39 31 26 25 25 23 32 30 29 25 30 32 30 27 20 21 27 26 28 28 30 26 25 26 24 26 36 36 33 30 26 24 22 23 24 21 27 23 23
42 41 39 39 38 37 28 27 27 22 11 27 27 25 24 23 25 21 18 24 29 28 31 27 26 20 24 26 25 25 26 23 23 22 23 17 29 21 13 15 17 19 19 24
40 38 38 38 36 33 26 22 18 14 18 24 23 21 23 27 27 21 26 27 26 25 24 24 26 27 29 24 21 22 23 21 20 28 24 18 31 22 14 11 17 12 26 27
38 38 36 36 33 30 24 21 18 17 23 22 22 24 25 25 23 21 21 25 20 18 20 22 23 26 25 23 22 21 22 21 22 27 14 29 21 15 9 7 9 14 8 5
38 37 35 33 30 27 23 18 7 23 23 24 23 25 25 23 20 18 14 15 19 17 18 19 18 18 21 20 19 18 19 21 20 21 18 15 17 24 24 19 25 17 12 6
37 36 35 32 28 24 22 12 10 21 22 19 24 24 21 16 18 15 15 18 14 11 17 16 19 19 16 18 17 11 12 17 26 16 11 11 11 20 13 11 20 17 18 22
36 33 32 30 25 19 18 2 15 21 23 21 20 19 16 17 17 14 15 17 8 7 12 13 16 14 13 16 16 17 13 15 18 14 16 13 17 16 18 17 18 7 14 19
34 32 28 25 21 11 5 16 19 19 21 23 20 20 22 20 14 14 17 12 7 6 5 8 11 12 12 12 9 10 12 14 20 18 18 23 18 14 13 4 5 10 7 8
32 30 23 17 11 6 13 18 16 18 19 23 25 24 22 18 16 15 12 11 9 9 8 9 12 10 7 7 4 9 9 13 14 14 12 7 3 8 9 10 12 11 14 11
28 25 16 9 7 11 14 17 15 15 15 17 17 19 23 21 16 12 12 10 8 7 10 12 12 9 8 8 3 5 4 2 6 6 6 11 14 12 12 13 13 12 12 12
24 18 9 7 10 12 13 15 16 14 14 14 17 18 19 19 15 15 13 14 12 10 7 8 5 5 4 2 3 4 11 9 7 13 11 12 8 13 15 15 15 14 11 11
19 9 6 9 13 14 14 15 13 11 13 14 17 18 16 18 17 16 14 13 12 8 5 6 2 8 5 5 4 5 10 9 5 8 5 9 7 11 13 14 15 15 16 13
10 11 9 10 14 16 13 15 17 10 11 12 14 13 13 16 14 12 12 11 10 8 8 8 8 9 9 4 3 7 6 2 9 7 8 14 12 12 13 14 13 14 14 13
17 14 14 14 15 17 17 17 15 13 11 11 12 13 11 13 12 11 11 11 10 10 10 8 9 7 4 3 1 4 2 10 13 15 17 11 11 11 13 13 13 13 12 11
19 15 11 10 13 16 16 16 15 14 13 11 11 13 13 12 14 12 12 12 10 9 10 10 10 10 9 7 5 7 10 12 11 7 8 15 15 15 15 15 13 11 10 11
20 15 11 12 12 13 15 15 15 15 14 12 11 10 14 12 14 14 14 13 12 12 10 11 11 12 10 11 6 8 9 7 12 14 15 14 13 14 13 12 11 11 11 11
16 17 13 12 12 14 16 14 14 14 15 14 13 11 12 11 12 14 14 14 13 12 13 13 10 10 10 8 7 8 10 13 14 13 11 12 13 13 12 12 11 12 11 11
18 16 14 13 14 14 15 14 14 14 14 15 15 12 11 12 11 12 13 13 13 12 13 12 11 10 10 8 6 5 8 9 8 8 9 11 12 11 11 11 12 12 12 12
15 17 17 15 14 14 14 14 14 15 13 14 15 14 13 13 13 12 12 13 13 12 13 12 11 12 7 7 7 5 9 8 8 7 7 5 7 10 11 12 12 12 13 13
16 16 16 15 14 13 13 13 14 13 13 13 14 14 14 14 15 15 15 14 13 15 13 12 12 14 6 7 7 6 6 9 6 5 7 8 9 10 11 11 11 12 13 13
16 16 16 16 14 13 14 12 12 14 14 14 15 15 15 15 15 15 15 15 15 13 14 15 16 14 9 6 5 9 7 9 3 9 9 10 10 10 10 10 11 12 12 13
16 16 17 17 16 16 15 15 15 15 15 15 15 15 15 15 15 15 15 14 12 13 14 15 21 20 13 8 8 7 4 3 11 11 10 10 10 10 11 11 11 12 12 13
16 16 16 16 15 15 15 14 14 14 14 15 14 14 14 14 14 14 14 14 12 13 11 10 9 3 9 11 11 7 3 10 12 12 11 10 10 11 11 12 12 12 13 13
15 16 17 17 17 16 15 13 14 13 14 13 13 13 13 14 13 14 14 15 16 13 14 14 11 7 10 13 11 10 11 7 9 11 11 11 11 11 10 10 11 12 13 13
Wind_Direction
356 355 355 354 353 354 359 358 354 9 2 9 332 302 309 326 277 272 273 5 348 274 285 284 258 240 254 260 273 251 246 244 241 232 236 234 237 240 232 239 243 251 255 263
355 355 355 355 357 359 357 354 358 13 9 3 331 307 312 288 286 285 5 347 11 320 299 281 265 260 253 262 262 242 230 232 227 229 235 232 233 226 237 241 247 247 246 257
356 357 357 358 358 360 1 0 358 5 6 332 314 304 296 286 291 295 317 310 338 310 302 282 266 265 264 258 258 252 263 232 228 223 233 222 228 224 223 227 241 242 250 251
356 356 357 358 359 2 7 7 6 5 353 315 292 291 276 304 310 316 294 349 335 302 303 287 251 252 248 248 247 256 248 221 223 228 228 226 240 240 237 241 239 243 249 252
355 356 357 358 360 3 10 6 5 6 269 286 285 284 285 292 300 273 250 326 296 281 285 259 246 254 238 234 241 253 234 226 222 222 222 223 228 237 256 248 239 244 242 247
356 357 357 359 1 6 8 10 9 15 258 278 279 272 277 291 296 285 297 295 279 272 267 248 243 244 236 239 251 239 222 215 214 214 217 218 229 236 245 247 246 238 243 244
358 357 357 359 1 5 7 7 11 11 260 272 274 277 284 291 289 278 276 297 274 254 253 242 225 229 229 228 241 220 217 210 215 211 214 224 237 231 238 224 243 251 240 241
356 356 357 358 1 3 4 11 346 276 257 267 273 286 286 280 281 277 268 282 280 245 235 220 226 225 224 234 228 240 228 215 212 207 208 227 236 224 226 231 227 257 254 188
355 356 358 360 2 5 7 18 243 258 264 254 275 282 274 266 281 273 275 291 274 203 205 224 214 214 230 230 231 245 234 230 220 214 212 234 242 234 225 241 263 253 125 135
355 356 358 1 4 9 14 36 244 257 254 252 266 266 257 264 270 257 273 301 253 243 210 225 213 218 228 218 222 216 218 226 215 220 217 224 210 211 209 231 240 197 132 128
357 359 1 5 10 15 259 251 251 240 248 258 247 264 268 261 252 255 284 284 264 235 267 228 231 218 223 235 209 224 231 230 216 220 216 219 235 238 236 273 111 117 131 136
0 2 4 6 4 295 266 257 244 237 227 249 264 259 255 249 243 244 258 271 268 211 241 239 226 216 230 205 205 242 251 240 235 246 253 264 305 85 96 105 108 111 116 112
0 4 4 350 292 272 270 254 245 241 233 257 266 270 280 271 265 221 250 240 234 235 232 219 197 192 216 197 172 86 194 111 101 119 92 87 89 90 87 91 95 96 94 95
2 6 353 288 263 262 262 245 236 229 225 236 266 270 272 274 266 263 222 240 244 246 186 178 189 193 231 193 188 167 212 202 124 99 100 90 81 81 86 84 86 85 78 81
6 333 302 265 255 258 252 227 207 226 216 245 269 271 273 280 279 262 254 259 255 244 243 184 227 197 234 236 237 222 219 174 180 178 197 103 101 82 81 80 81 84 85 78
330 295 274 256 255 255 226 203 187 236 245 229 268 252 267 289 280 260 251 259 264 250 233 249 226 214 219 275 276 249 238 192 106 115 100 86 85 78 72 74 73 74 73 72
294 281 268 255 243 242 217 206 225 256 204 192 230 264 252 282 282 259 254 255 256 267 265 270 233 223 203 165 340 264 73 86 90 97 93 80 82 74 72 72 70 66 60 49
291 279 254 228 215 217 220 208 205 236 202 185 206 255 261 287 291 277 274 259 256 277 256 256 251 237 249 269 296 30 66 82 87 83 67 87 84 77 74 75 68 55 46 44
289 270 226 178 212 230 224 238 235 199 202 199 199 254 283 269 290 278 282 280 265 269 280 262 258 260 267 252 292 41 71 60 87 86 84 87 83 80 75 66 56 54 50 49
280 321 279 269 241 239 250 235 229 228 208 207 193 193 235 246 268 303 297 294 284 282 293 302 300 277 299 330 9 28 77 90 98 95 89 90 84 83 74 67 61 60 58 54
312 292 273 224 246 240 229 237 222 214 222 216 206 213 222 198 257 270 280 291 299 301 299 313 326 315 315 314 337 41 78 90 82 80 96 88 88 80 77 72 64 61 59 58
258 247 240 229 232 232 237 223 219 213 230 224 224 222 219 221 213 227 245 266 281 308 291 309 310 291 333 351 5 47 91 94 88 87 93 66 80 78 78 73 67 61 60 59
267 268 255 239 249 262 246 260 252 259 257 244 237 244 231 252 270 264 261 257 258 257 280 289 292 287 340 25 17 63 88 97 76 83 79 74 76 77 77 68 59 60 58 55
278 269 249 230 246 266 241 246 239 229 254 259 265 263 264 270 273 273 258 251 251 262 261 255 255 266 271 30 38 90 92 100 96 92 85 78 75 68 59 58 64 63 58 52
268 262 243 242 258 250 221 231 241 256 253 272 275 278 283 266 273 271 268 260 277 272 255 247 229 225 239 51 69 84 83 89 100 94 81 71 67 62 58 59 59 58 63 62
251 246 247 250 256 264 255 255 256 241 244 252 239 258 256 258 248 250 254 249 253 240 238 240 244 9 67 67 72 84 73 121 96 84 73 66 61 61 61 57 58 62 64 61
234 231 229 233 233 219 208 228 223 234 258 250 244 251 246 232 247 251 258 256 248 257 260 259 261 299 63 76 65 82 114 130 90 77 64 62 60 61 56 51 49 52 56 54